Location: Niagara
(43.2500°N, 79.0670°W)
Time: 22:51:43
(UTC-04:00)

ISS - Pass Details

Date: 13 October 2017
Orbit: 401 x 408 km, 51.6° (Epoch: 22 October)

Event Time Altitude Azimuth Distance (km) Brightness Sun altitude
Rises 20:17:35 0° 297° (WNW) 2,326 1.3 -19.2°
Reaches altitude 10° 20:19:46 10° 288° (WNW) 1,464 0.2 -19.6°
Maximum altitude 20:22:47 35° 221° (SW) 680 -2.5 -20.2°
Enters shadow 20:23:29 31° 193° (SSW) 741 -2.5 -20.3°
